Regional Weather Roundup
Issued by NWS Pendleton, OR

Home | Current Version | Previous Version | Text Only | Print | Product List | Glossary On
Versions: 1 2 3 4 5 6 7 8 9 10 11 12 13 14 15 16 17 18 19 20 21 22 23 24 25 26 27 28 29 30 31 32 33 34 35 36 37 38 39 40 41 42 43 44 45 46 47 48 49 50
000
ASUS46 KPDT 180325
RWRPDT
PENDLETON REGIONAL WEATHER ROUNDUP
NATIONAL WEATHER SERVICE PENDLETON OREGON
800 PM PDT FRI APR 17 2015

NOTE: FAIR INDICATES FEW OR NO CLOUDS BELOW 12,000 FEET WITH NO
SIGNIFICANT WEATHER AND/OR OBSTRUCTIONS TO VISIBILITY.

# INDICATES UNOFFICIAL STATION AND DATA

WAZ520-180410-
EAST SLOPES OF WASHINGTON CASCADES

CITY            SKY/WX      TMP DP  RH  WIND    PRES   REMARKS
#BUMPING DAM    N/A         51  N/A N/A CALM    N/A
#CLE ELUM HS    N/A         57  33  40  W7      30.10R
#CLE ELUM LAKE  N/A         51  35  54  CALM    30.13R
#CLIFFDEL 2NW   N/A         55  36  49  NW7     N/A
#GLENWOOD       N/A         58  39  49  CALM    30.09R
#MANASTASH CYN  N/A         53  33  46  W1      30.12R
#NELSON         N/A         57  37  47  CALM    30.18R
#NELSON 3SW     N/A         51  37  59  CALM    30.37S
#NILE           N/A         57  37  47  W3      29.40R
#RONALD 2NW     N/A         53  37  54  N1      30.05R
#SNOWDEN        N/A         57  27  31  CALM    N/A
#TEANAWAY 4NE   N/A         59  40  49  SW7     N/A
#TROUT LAKE 1NE N/A         61  40  46  NW9     30.11R
$$

WAZ521-180410-
SIMCOE HIGHLANDS

CITY            SKY/WX      TMP DP  RH  WIND    PRES   REMARKS
#BICKLETON HS   N/A         58  25  28  NW3     N/A
#CENTERVILLE 4W N/A         62  42  48  NW14    29.84R
#CENTERVILLE 1SWN/A         62  42  48  W16     30.03F
#GOLDENDALE     N/A         67  42  40  W10     N/A
#GOLDENDALE 1NE N/A         64  30  28  SW3     N/A
#GOLDENDALE 5WNWN/A         63  44  50  W13     30.06R
#GOODNOE HILLS  N/A         65  43  45  W16     N/A
#LYLE 6NE       N/A         63  41  44  W7      30.07R
$$

WAZ026-180410-
KITTITAS VALLEY

CITY            SKY/WX      TMP DP  RH  WIND    PRES   REMARKS
ELLENSBURG AP   CLEAR       60  35  39  NW17G28 30.12R
YTC-OPS AREA    CLEAR       55  34  45  W31G39  30.08R
#ELLENSBURG CWU N/A         61  37  41  NW14    30.04R
#ELLENSBURG 3NE N/A         58  38  47  NW7     30.11R
#ELLENSBURG 1E  N/A         60  35  39  NW2     N/A
#KITTITAS 4N    N/A         57  37  47  N12     28.44R
#KITTITAS 3S    N/A         60  39  46  W10     30.10R
#THORP 6N       N/A         56  35  45  W21G35  30.12R
$$

WAZ027-180410-
YAKIMA VALLEY

CITY            SKY/WX      TMP DP  RH  WIND    PRES   REMARKS
SUNNYSIDE AP    CLEAR       58  40  51  N6      30.06R
YAKIMA AIRPORT  CLEAR       70  33  25  N16     30.08R
YAKIMA-VAGABOND CLEAR       66  30  26  N9      30.09R
#DONALD 2NE     N/A         68   6   9  NW3     28.92R
#GRANDVIEW      N/A         67  34  29  CALM    30.06S
#MABTON         N/A         70  38  31  E3      30.04S
#MOXEE 2E       N/A         61   4  10  S1      30.06
#NACHES 2SW     N/A         62  40  44  W8      30.09S
#OUTLOOK DOT    N/A         N/A N/A N/A E2      N/A
#SELAH 8E       N/A         61  29  30  W5      N/A
#TERRACE HTS    N/A         66  30  26  N9      30.04R
#WAPATO 4NE     N/A         68   6   9  NW3     28.92R
#WEST VALLEY    N/A         66  36  33  N8      30.05R
#W YAKIMA       N/A         65  38  37  W3      30.08R
#WHITE SWAN 5E  N/A         68  39  35  N3      30.06R
#WILEY CITY 3W  N/A         64  22  20  N1      30.06F
$$

WAZ028-180410-
LOWER COLUMBIA BASIN...WASHINGTON

CITY            SKY/WX      TMP DP  RH  WIND    PRES   REMARKS
PASCO           CLEAR       69  34  27  S5      30.05S
PROSSER AWOS    N/A         70  36  29  E1      30.08S
RICHLAND AWOS   CLEAR       68  36  31  S6      30.05S
#BASIN CITY 5SW N/A         61  45  56  CALM    30.04F
#BENTON CITY    N/A         68  36  31  S5      29.95F
#CONNELL 5N     N/A         61  42  50  W5      30.04S
#CONNELL 5NW    N/A         61  41  48  S3      30.00F
#ELTOPIA        N/A         64  42  45  CALM    30.01S
#ELTOPIA 6NW    N/A         65  42  43  S2      29.02S
#KAHLOTUS       N/A         65  36  34  W15     30.05S
#KENNEWICK 3S   N/A         64  37  37  S1      30.05S
#PATERSON       N/A         70  37  30  NE1     30.02F
#PROSSER        N/A         67  33  28  S7      30.03F
#SAGEMOOR 2W    N/A         64  44  48  CALM    29.89S
#TOUCHET 2S     N/A         59  47  64  CALM    30.03F
#WEST PASCO     N/A         69  39  33  CALM    30.03S
$$

WAZ029-180410-
FOOTHILLS OF THE BLUES...WASHINGTON

CITY            SKY/WX      TMP DP  RH  WIND    PRES   REMARKS
WALLA WALLA AP  CLEAR       67  33  28  W3      30.07S
#CLYDE 6NW      N/A         59  39  47  CALM    30.05S
#DAYTON SCHOOL  N/A         59  37  44  NE2     30.09S
#LOWDEN 2SE     N/A         61  46  58  CALM    30.01F
#PLEASANT VIEW 1N/A         60  35  39  SW5     30.09S
#PRESCOTT       N/A         56  46  69  CALM    30.04S
#WHITMAN COLLEGEN/A         68  38  33  CALM    30.10S
#WAITSBURG 5S   N/A         60  39  46  CALM    30.16R
#WAITSBURG 8N   N/A         50  22  33  N1      29.91S
#WALLA WALLA 5E N/A         54  45  71  NE3     N/A
#WALLA WALLA U  N/A         69  39  33  CALM    30.05R
#WHITMAN MISSIONN/A         66  44  45  CALM    30.06S
$$

WAZ030-180410-
BLUE MOUNTAINS...WASHINGTON

CITY            SKY/WX      TMP DP  RH  WIND    PRES   REMARKS
#DAYTON 8SE     N/A         49  41  74  E2      29.89R
#DIXIE 5SE      N/A         57  30  35  CALM    30.05S
$$

ORZ009-041-WAZ024-180410-
COLUMBIA RIVER GORGE

CITY            SKY/WX      TMP DP  RH  WIND    PRES   REMARKS
HOOD RIVER AP   CLEAR       66  41  40  SW3     30.11S
THE DALLES AP   CLEAR       70  40  34  NW9     30.06R
#ARLINGTON AIRPON/A         66  44  45  W5      29.83
#CELILO DOT     N/A         72  41  33  SW8     N/A
#LYLE           N/A         69  44  40  NW14    30.10R
#MOSIER 1S      N/A         65  28  25  NW2     30.09R
#MURDOCK        N/A         72  43  35  W13G24  30.08R
#RUFUS DOT      N/A         73  42  33  W15     N/A

$$

ORZ510-180410-
NORTH CENTRAL OREGON

CITY            SKY/WX      TMP DP  RH  WIND    PRES   REMARKS
#CHENOWITH 1W   N/A         63  39  41  W22     N/A
#COW CYN RST AREN/A         62  62  100 N7      N/A
#DUFUR 9E       N/A         61  39  44  W9      30.13S
#GRASS VALLEY 1SN/A         61  40  46  NW13    30.11F
#KENT DOT       N/A         60  32  35  NW8     N/A
#MAUPIN SCHOOL  N/A         67  41  39  CALM    30.11R
#MORO SCHOOL    N/A         64  47  54  W13     30.11S
#SHANIKO 5WSW   N/A         60  28  29  NW13    N/A
#SHANIKO 4NW    N/A         57  35  43  N10     30.16R
#TYGH VALLEY 2NEN/A         69  35  28  N14     30.07S
#WAPANITIA AIRPON/A         61  39  44  W5      30.11S
#WASCO DOT      N/A         67  40  37  W8      N/A
#WASCO AIRPORT  N/A         64  41  43  W9      N/A
#WASCO 5NE      N/A         64  44  48  W10     30.07S
$$

ORZ511-180410-
CENTRAL OREGON

CITY            SKY/WX      TMP DP  RH  WIND    PRES   REMARKS
BEND AIRPORT    N/A         N/A N/A N/A MISG    N/A
MADRAS AIRPORT  CLEAR       61  37  41  NW14    30.15R
PRINEVILLE AP   CLEAR       61  36  39  N15     30.15R
REDMOND AIRPORT CLEAR       62  34  35  N13     30.13R
#BEND 6E        N/A         62  29  28  CALM    30.01F
#BEND 1SW       N/A         59  39  47  CALM    N/A
#BEND-AWBREY    N/A         62  40  44  N3      30.10R
#BEND-KIM LN    N/A         64  34  33  CALM    30.12R
#CROOKED RVR RANN/A         62  37  39  NE6     30.11R
#CULVER         N/A         61  38  42  N5      30.09R
#LAKE BILLY CHINN/A         62   4  10  N13     30.18R
#MADRAS         N/A         63  37  38  N14     N/A
#POWELL BUTTE 3EN/A         67  27  22  N9      N/A
#POWELL BUTTE   N/A         59  35  40  N3      29.78R
#PRINEVILLE 3N  N/A         61  39  44  N12     30.07R
#WARM SPRINGS   N/A         65  39  38  SW7     30.09R

$$


ORZ509-180410-
EAST SLOPES OF OREGON CASCADES

CITY            SKY/WX      TMP DP  RH  WIND    PRES   REMARKS
#BLUE BOX PASS  N/A         51  -2  11  W3      N/A
#CAMP SHERMAN   N/A         60  39  46  VRB1    30.18R
#LA PINE 4NW    N/A         59  37  44  NW1     30.14R
#SISTERS AIRPOR N/A         61  47  60  N7      30.17S
#SISTERS ODOT   N/A         63  N/A N/A SE3     N/A
#SISTERS 1NW    N/A         63  38  39  VRB5    N/A
#SISTERS 3N     N/A         59  36  42  CALM    30.13S
#SUNRIVER       N/A         60  35  39  CALM    30.01R
#TUMALO 3W      N/A         60  40  47  NW8     29.96R
#WANOGA BUTTE D N/A         51  32  48  CALM    N/A

$$

ORZ044-180410-
LOWER COLUMBIA BASIN...OREGON

CITY            SKY/WX      TMP DP  RH  WIND    PRES   REMARKS
HERMISTON       CLEAR       61  43  51  E3      30.05S
#BOARDMAN 8SW   N/A         65  43  45  W3      30.04S
#ECHO 8SW       N/A         65  41  41  CALM    30.07S
#IONE SCHOOL    N/A         67  39  36  CALM    30.03S
#IRRIGON 4NW    N/A         70  33  25  E1      N/A
#UMATILLA SCHOOLN/A         70  49  47  CALM    30.11S
#UMATILLA       N/A         68  38  33  CALM    29.96F
$$

ORZ507-180410-
NORTHERN FOOTHILLS OF THE BLUES

CITY            SKY/WX      TMP DP  RH  WIND    PRES   REMARKS
PENDLETON AIRPT CLEAR       59  38  45  N5      30.07S
#ADAMS 3WNW     N/A         58  38  47  CALM    30.07S
#ATHENA         N/A         60  41  49  CALM    30.10S
#CAYUSE         N/A         63  40  43  E2      30.06S
#HELIX SCHOOL   N/A         59  39  47  CALM    30.07S
#HELIX 3N       N/A         57  41  55  N1      30.05S
#HOLDMAN 6E     N/A         61  35  38  CALM    29.88S
#M-F FERNDALE   N/A         66  39  37  CALM    30.05R
#M-F GROVE ELEM N/A         63  40  43  CALM    30.05R
#M-FREEWATER 5SEN/A         61  43  51  CALM    30.07R
#PDT AQUATIC CTRN/A         61  33  35  VRB6    30.09S
#PENDLETON 5NE  N/A         60  40  47  CALM    30.04S
#PDT SUNRIDGE   N/A         64  39  40  CALM    30.08R
#PENDLETON 7NW  N/A         66  38  36  CALM    30.04S
#PILOT ROCK     N/A         55  38  53  CALM    30.10S
#TUTUILLA       N/A         53  42  66  S3      30.08S
#UMAPINE 2E     N/A         56  46  69  CALM    30.03S
#WESTON SCHOOL  N/A         57  37  47  CALM    30.06R

$$

ORZ508-180410-
SOUTHERN FOOTHILLS OF THE BLUES

CITY            SKY/WX      TMP DP  RH  WIND    PRES   REMARKS
LEXINGTON       CLEAR       63  32  31  CALM    30.10S
#AJAX           N/A         63  34  34  SW10    30.04S
#CONDON SCHOOL  N/A         62  39  43  CALM    30.08S
#CONDON 5W      N/A         57  37  47  NW7     30.10F
#FOSSIL SCHOOL  N/A         63  35  35  N5      30.09R
#HEPPNER EOC    N/A         61  35  38  CALM    30.01S
#HEPPNER 4NE    N/A         59  33  37  CALM    30.09S
#LEXINGTON 2SE  N/A         63  36  36  CALM    30.06S
#MIKKALO        N/A         65  41  41  W5      30.08S
#OLEX 4N        N/A         66  43  43  W9      30.05F
#RUGGS 5NE      N/A         62  30  30  VRB1    30.30R
#RUGGS 2SW      N/A         57  35  43  W6      30.11S

$$

ORZ502-503-180410-
BLUE MOUNTAINS

CITY            SKY/WX      TMP DP  RH  WIND    PRES   REMARKS
MEACHAM         CLEAR       50  32  50  CALM    30.14S
#BATTLE MTN DOT N/A         53  36  52  N2      N/A
#HARDMAN 10S    N/A         54  31  41  CALM    30.22S
#HEPPNER 15SE   N/A         48  35  60  CALM    30.08R
#LADD CYN SMT   N/A         55  24  30  NW3     N/A
#LADD CREEK ODOTN/A         59  32  36  CALM    N/A
#LONG CREEK HS  N/A         53  35  50  CALM    30.08R
#N POWDER DOT   N/A         59  32  36  N9      N/A
#PIKES PEAK     N/A         57  33  40  SW6     27.99S
#TOLLGATE       N/A         46  34  63  CALM    30.07S
#TROY SCHOOL    N/A         61  43  51  CALM    29.90R
#UKIAH          N/A         55  36  49  CALM    30.17R
#WESTON 4E      N/A         56  35  45  CALM    30.03S
$$

ORZ505-180410-
JOHN DAY BASIN

CITY            SKY/WX      TMP DP  RH  WIND    PRES   REMARKS
JOHN DAY        CLEAR       58  34  40  NW5     30.13R
#JOHN DAY KJDY  N/A         62  33  34  W1      30.15R
#DAYVILLE SCHOOLN/A         66  26  22  CALM    30.05R
#MITCHELL       N/A         64  34  33  CALM    30.24R
#MITCHELL 8NW   N/A         60  28  29  CALM    30.04R
#MONUMENT HS    N/A         66  32  28  CALM    30.08R
#MT. VERNON 5SE N/A         58  36  44  CALM    30.08R
#WINLOCK        N/A         57  30  35  CALM    30.20R
$$

ORZ506-180410-
OCHOCO AND JOHN DAY HIGHLANDS

CITY            SKY/WX      TMP DP  RH  WIND    PRES   REMARKS
#BUCK CREEK DOT N/A         63  63  100 N10     N/A
#HORSE RIDGE DO N/A         63  25  23  N8      N/A
#PAULINA SCHOOL N/A         67  22  18  N2      30.07S
#PINE MTN OBS   N/A         50  27  41  NW5     N/A
#PRAIRIE CITY   N/A         57  30  35  CALM    30.06R
#SENECA         N/A         56  N/A N/A CALM    N/A
#SENECA 9NW     N/A         54  31  41  CALM    30.10R
$$

ORZ049-180410-
GRANDE RONDE VALLEY

CITY            SKY/WX      TMP DP  RH  WIND    PRES   REMARKS
LA GRANDE       CLEAR       59  30  33  NW9     30.09R
#COVE           N/A         55  41  59  CALM    30.09R
#COVE SCHOOL    N/A         58  39  49  CALM    30.06R
#ELGIN 3N       N/A         59  31  34  CALM    30.06R
#ELGIN 1E       N/A         61  36  39  CALM    N/A
#IMBLER SCHOOL  N/A         57  36  45  N3      30.06R
#ISLAND CITY 4N N/A         60  47  62  CALM    30.19R
#LADD CYN DOT   N/A         61  32  33  N3      N/A
#LA GRANDE ELEM N/A         61  34  36  W10     30.12R
#UNION 1S       N/A         60  36  41  N1      29.98R
$$

ORZ050-180410-
WALLOWA COUNTY

CITY            SKY/WX      TMP DP  RH  WIND    PRES   REMARKS
JOSEPH AIRPORT  CLEAR       48  34  58  CALM    30.12R
#ENTERPRISE HS  N/A         56  33  42  CALM    30.09R
#IMNAHA SCHOOL  N/A         63  36  36  N2      30.03R
#JOSEPH 3N      N/A         51  28  41  NW6     30.12R
#JOSEPH 3W      N/A         47  33  58  SW2     29.97R
#LOSTINE        N/A         57  33  40  CALM    29.86R
#MT HOWARD 8000 N/A         39  26  59  NW5     30.23S
#PROMISE 1S     N/A         55  40  57  CALM    30.16F
#SHEEP RDG 7000 N/A         45  26  47  CALM    30.09S
#WALLOWA SCHOOL N/A         60  31  33  CALM    31.00R



$$



USA.gov is the U.S. government's official web portal to all federal, state and local government web resources and services.